Weather Service Report


043 
ASUS43 KFSD 011510
RWRFSD

WEATHER ROUNDUP FOR SE SOUTH DAKOTA/SW MINNESOTA/NW IOWA
NATIONAL WEATHER SERVICE SIOUX FALLS SD
900 AM CST SUN MAR 01 2015

NOTE: "FAIR" INDICATES FEW OR NO CLOUDS BELOW 12,000 FEET WITH NO
SIGNIFICANT WEATHER AND OR OBSTRUCTIONS TO VISIBILITY.


SDZ038>040-050-052>070-011600-
SOUTHEAST SOUTH DAKOTA
  
CITY           SKY/WX    TMP DP  RH WIND       PRES   REMARKS
CHAMBERLAIN    SUNNY     21  11  66 W13       30.31R WCI   9          
HURON          MOSUNNY   15   9  76 W7        30.31R WCI   5          
MADISON        FAIR      10  10 100 W8        30.28R WCI  -1          
MITCHELL       PTSUNNY   22  13  68 W12       30.33R WCI  10          
SIOUX FALLS    PTSUNNY   16  10  77 W6        30.31R WCI   7          
WINNER         FAIR      24  12  60 W13       30.31R WCI  12          
YANKTON        MOSUNNY   21  14  73 SW10      30.36S WCI  10          
$$

MNZ071-072-080-081-089-090-097-098-011600-
SOUTHWEST MINNESOTA
  
CITY           SKY/WX    TMP DP  RH WIND       PRES   REMARKS
FAIRMONT       PTSUNNY   16  12  86 W6        30.29R WCI   7          
JACKSON        PTSUNNY   18  10  73 W8        30.28R WCI   7          
LUVERNE        PTSUNNY   18  12  79 W6        30.32R WCI   9          
MARSHALL       PTSUNNY   16   5  62 W14       30.30R WCI   1          
MONTEVIDEO     MOSUNNY   12   7  79 CALM      30.30R                  
PIPESTONE      PTSUNNY   12   9  85 W6        30.27R WCI   3          
REDWOOD FALLS  MOSUNNY   13   4  67 W9        30.30R WCI   1          
TRACY          PTSUNNY   17   8  70 SW7       30.29R WCI   7          
WINDOM         PTSUNNY   16   9  73 W7        30.29R WCI   6          
WORTHINGTON    CLOUDY    27   9  46 W8        30.30R WCI  18          
$$

IAZ001>003-012>014-020>022-031-032-NEZ013-014-SDZ071-011600-
NORTHWEST IOWA
  
CITY           SKY/WX    TMP DP  RH WIND       PRES   REMARKS
CHEROKEE       CLOUDY    16  14  91 NW5       30.34R WCI   9          
DENISON        MOSUNNY   18  16  93 W6        30.33R WCI   9          
ESTHERVILLE    PTSUNNY   16  12  84 W10       30.30R WCI   4          
LE MARS        PTSUNNY   18  14  86 CALM      30.36R                  
ORANGE CITY    MOSUNNY   18  14  86 CALM      30.32R                  
SHELDON        CLOUDY    16  12  86 W5        30.31R WCI   9          
SIOUX CITY     CLOUDY    19  14  81 NW9       30.36R WCI   8          
SPENCER        CLOUDY    17  12  80 NW8       30.32R WCI   7          
STORM LAKE     MOSUNNY   16  14  93 NW13      30.33R WCI   2          
$$
 
ABBREVIATIONS USED IN REMARKS
   TC - TEMPERATURE IN CELSIUS
  WCI - WIND CHILL INDEX
   HX - HEAT INDEX
  VSB - VISIBILITY



045 
ASUS43 KFSD 011510
RWRSD 

WEATHER ROUNDUP FOR SOUTH DAKOTA
NATIONAL WEATHER SERVICE SIOUX FALLS SD
900 AM CST SUN MAR 01 2015

NOTE: "FAIR" INDICATES FEW OR NO CLOUDS BELOW 12,000 FEET WITH NO
SIGNIFICANT WEATHER AND/OR OBSTRUCTIONS TO VISIBILITY.


SDZ001>005-009-010-012>017-011600-
NORTHWEST AND NORTH CENTRAL SOUTH DAKOTA
  
CITY           SKY/WX    TMP DP  RH WIND       PRES   REMARKS
BUFFALO          N/A     15  10  80 W14       30.14R WCI   0          
FAITH            N/A     17   7  64 W15       30.24R WCI   2          
MOBRIDGE       LGT SNOW  16  10  77 W6        30.22R WCI   7          
$$
 
SDZ012>016-024>037-041>051-057-063-072>074-011600-
SOUTHWEST AND SOUTH CENTRAL SOUTH DAKOTA
  
CITY           SKY/WX    TMP DP  RH WIND       PRES   REMARKS
RAPID CTY ARPT SUNNY     14   9  80 N3        30.24R                  
PIERRE         PTSUNNY   18   9  68 W13       30.28R WCI   5          
CUSTER         SUNNY     12   5  73 W7        30.10R WCI   1          
ELLSWORTH AFB  SUNNY     15   7  71 CALM      30.23R                  
PHILIP         SUNNY     18   9  68 W8        30.30R WCI   8          
PINE RIDGE     CLOUDY    19  13  77 W6        30.27R WCI  11          
WINNER         FAIR      24  12  60 W13       30.31R WCI  12          
$$
 
SDZ004>011-016>023-039-040-011600-
NORTHEAST SOUTH DAKOTA
  
CITY           SKY/WX    TMP DP  RH WIND       PRES   REMARKS
ABERDEEN       MOSUNNY   12   5  73 SW10      30.26R WCI  -1          
WATERTOWN      MOSUNNY   11   4  73 SW12      30.23R WCI  -3          
SISSETON         N/A     16   6  65 W18G26    30.23R WCI   0          
$$
 
SDZ017-020-022-023-036>040-048>070-011600-
SOUTHEAST SOUTH DAKOTA
  
CITY           SKY/WX    TMP DP  RH WIND       PRES   REMARKS
SIOUX FALLS    PTSUNNY   16  10  77 W6        30.31R WCI   7          
HURON          MOSUNNY   15   9  76 W7        30.31R WCI   5          
CHAMBERLAIN    SUNNY     21  11  66 W13       30.31R WCI   9          
MITCHELL       PTSUNNY   22  13  68 W12       30.33R WCI  10          
YANKTON        MOSUNNY   21  14  73 SW10      30.36S WCI  10          
$$
 
ABBREVIATIONS USED IN REMARKS
   TC - TEMPERATURE IN CELSIUS
  WCI - WIND CHILL INDEX
   HX - HEAT INDEX
  VSB - VISIBILITY


Return to Home page


Western Regional Climate Center, wrcc@dri.edu